Location: Unspecified
(39.5652°N, 0.0000°E)
Time: 06:29:02
(UTC+00:00)

Explorer 7 - Visible Passes

Search period start: 04 April 2026 00:00
Search period end: 14 April 2026 00:00
Orbit: 429 x 539 km, 50.2° (Epoch: 29 March)

Date Brightness Start Highest point End Pass type
(mag) Time Alt. Az. Time Alt. Az. Time Alt. Az.
4 Apr 9.0 03:24:55 13° SE 03:24:55 13° SE 03:25:24 10° SE visible
4 Apr 8.5 04:59:17 10° WSW 04:59:37 10° SW 05:00:19 10° SW visible
4 Apr 7.7 20:15:00 10° SW 20:17:34 34° SSW 20:17:34 34° SSW visible
5 Apr 6.9 19:47:57 10° SSW 19:51:51 47° SE 19:53:13 33° E visible
5 Apr 9.5 21:26:39 10° W 21:27:35 15° W 21:27:35 15° W visible
6 Apr 7.1 19:20:53 10° SSW 19:24:45 44° SE 19:28:30 10° ENE visible
6 Apr 8.3 20:59:28 10° W 21:02:51 34° NW 21:02:51 34° NW visible
7 Apr 7.2 18:53:48 10° SSW 18:57:38 41° SE 19:01:25 10° ENE visible
7 Apr 8.1 20:32:16 10° W 20:36:02 37° NNW 20:37:45 25° NNE visible
8 Apr 8.0 20:05:02 10° W 20:08:51 39° NNW 20:12:20 11° NE visible
8 Apr 9.6 21:45:15 10° NW 21:46:38 15° NNW 21:46:38 15° NNW visible
9 Apr 8.0 19:37:46 10° W 19:41:38 41° NNW 19:45:26 10° NE visible
9 Apr 9.2 21:17:57 10° NW 21:20:46 18° N 21:20:59 18° N visible
10 Apr 7.9 19:10:29 10° W 19:14:23 43° NNW 19:18:14 10° NE visible
10 Apr 9.1 20:50:38 10° NW 20:53:30 19° N 20:55:07 15° NNE visible
11 Apr 9.2 20:23:17 10° WNW 20:26:12 19° N 20:29:06 10° NE visible
11 Apr 9.9 22:02:44 10° NW 22:03:23 13° NNW 22:03:23 13° NNW visible
12 Apr 9.1 19:55:54 10° WNW 19:58:53 19° N 20:01:49 10° NE visible
12 Apr 9.3 21:35:24 10° NW 21:37:16 17° NNW 21:37:16 17° NNW visible
13 Apr 9.1 19:28:29 10° WNW 19:31:31 20° NNW 19:34:31 10° NE visible
13 Apr 8.9 21:08:04 10° NW 21:10:58 19° N 21:11:05 19° NNE visible
